Вернуться в каталог

CZ-6A DEB

АктивенSSO
NORAD 54356·DEBRIS·🇨🇳 China

Запущен Nov 11, 2022 с Taiyuan Satellite Launch Center

Loading…

Ближайшие Пролёты (ближайшие 24 часа)

TLE

СвежийSource: Space-Track

Эпоха: Sep 14, 2026, 02:42 UTC

1 54356U 22151DB  26257.11255271  .00002314  00000-0  78223-3 0  9995
2 54356  98.8664 317.8557 0066761 206.1805 153.6000 14.36610357199820

Отслеживайте CZ-6A DEB в реальном времени с AllMySat

Download on the App Store